Regional Weather Roundup
Issued by NWS

Home | Current Version | Previous Version | Graphics & Text | Print | Product List | Glossary Off
Versions: 1 2 3 4 5 6 7 8 9 10 11 12 13 14 15 16 17 18 19 20 21 22 23 24 25 26 27 28 29 30 31 32 33 34 35 36 37 38 39 40 41 42 43 44 45 46 47 48 49 50

000
ASUS43 KDMX 061907
RWRIA

WEATHER ROUNDUP FOR IOWA
NATIONAL WEATHER SERVICE DES MOINES IA
200 PM CDT WED MAY 06 2015

NOTE: "FAIR" INDICATES FEW OR NO CLOUDS BELOW 12,000 FEET WITH NO
SIGNIFICANT WEATHER AND/OR OBSTRUCTIONS TO VISIBILITY.

* - THESE STATIONS ARE NOT NWS STATIONS...THUS NOT UNDER NWS
QUALITY CONTROL.  THEY ALSO DO NOT REPORT WEATHER SUCH
AS PRECIPITATION OR FOG.

IAZ001>003-012>014-020>022-031>034-043>046-062000-
   NORTHWEST IOWA

CITY           SKY/WX    TMP DP  RH WIND       PRES   REMARKS
CARROLL *      PTSUNNY   75  59  57 S20G31    29.87F
CHEROKEE *     CLOUDY    73  61  64 S26G32    29.83F
DENISON *      PTSUNNY   72  61  68 S17G30    29.84S
LE MARS *      PTSUNNY   73  59  60 S26G39    29.79F
ORANGE CITY *  PTSUNNY   70  57  64 S23G29    29.80F
SHELDON *      CLOUDY    72  66  83 S30G39    29.80F
SIOUX CITY     CLOUDY    72  59  63 S23       29.79F
SPENCER        PTSUNNY   70  63  78 S26G32    29.85F
STORM LAKE *   MOSUNNY   73  59  60 S29G38    29.85F
$$

IAZ055>058-069>071-079>083-090>094-062000-
   SOUTHWEST IOWA

CITY           SKY/WX    TMP DP  RH WIND       PRES   REMARKS
ATLANTIC *     CLOUDY    73  61  64 S20G26    29.88S
AUDUBON *      MOSUNNY   72  61  68 S22G28    29.89F
CLARINDA *     PTSUNNY   72  61  68 S22G32    29.92S
COUNCIL BLFS * CLOUDY    68  68 100 S18G28    29.85F
CRESTON *      PTSUNNY   72  61  68 S25G32    29.94R
HARLAN  *      PTSUNNY   68  68 100 S16G25    29.90R FOG
LAMONI         CLOUDY    72  58  61 S22G31    29.96S
RED OAK *      PTSUNNY   73  61  64 S23G35    29.88S
SHENANDOAH *   PTSUNNY   72  63  73 S24G36    29.89R
$$

IAZ047>049-059>061-072>074-084-062000-
   CENTRAL IOWA

CITY           SKY/WX    TMP DP  RH WIND       PRES   REMARKS
AMES           CLOUDY    76  59  55 S24G35    29.92F
ANKENY *       MOSUNNY   75  59  57 S22G30    29.92F
CHARITON *     SUNNY     72  59  64 S23       29.97S
DES MOINES     CLOUDY    76  58  53 S20       29.93F
GRINNELL*      PTSUNNY   75  61  60 SE17G25   29.96S
KNOXVILLE *    MOSUNNY   77  54  44 S26G36    29.94F
MARSHALLTOWN   CLOUDY    75  60  59 S17G28    29.93S
PELLA *        CLOUDY    77  63  61 S20G28    29.97S
PERRY *        CLOUDY    73  59  60 S22       29.90F
$$

IAZ004>006-015-016-023>025-035-036-062000-
   NORTH CENTRAL IOWA

CITY           SKY/WX    TMP DP  RH WIND       PRES   REMARKS
ALGONA *       PTSUNNY   68  61  77 S23G29    29.89S
CLARION *      RAIN      70  64  83 S26G33    29.91S
ESTHERVILLE    CLOUDY    67  62  84 S30G44    29.86F
FORT DODGE *   CLOUDY    73  61  64 S20G29    29.90F
MASON CITY     PTSUNNY   74  63  68 SE21G32   29.94F
FOREST CITY *  MOSUNNY   70  61  73 SE18G30   29.91F
IOWA FALLS *   CLOUDY    73  61  64 S20G28    29.94S
$$

IAZ007>011-017>019-026>030-037>042-050>054-066-062000-
   NORTHEAST IOWA

CITY           SKY/WX    TMP DP  RH WIND       PRES   REMARKS
CEDAR RAPIDS   MOSUNNY   81  58  45 SE22G35   29.99F HX  81
CHARLES CITY * SUNNY     73  63  68 SE23G31   29.96F
CLINTON *      MOSUNNY   81  59  47 S18G26    30.07F HX  81
DECORAH *      SUNNY     72  61  68 SE12G18   30.01F
DUBUQUE        SUNNY     74  61  63 SE13G20   30.05F
MONTICELLO *   MOSUNNY   77  66  69 SE18      30.02F
OELWEIN *      SUNNY     77  61  57 S23G35    30.00F
WATERLOO       CLOUDY    79  59  50 SE21G33   29.94F HX  80
$$

IAZ064-065-067-068-078-062000-
   EAST CENTRAL IOWA

CITY           SKY/WX    TMP DP  RH WIND       PRES   REMARKS
DAVENPORT      MOSUNNY   81  52  36 S25G36    30.05F HX  80
IOWA CITY      MOSUNNY   80  57  45 SE25G33   30.01F HX  80
MT. PLEASANT * MOSUNNY   81  57  44 S22       30.00F HX  81
MUSCATINE *    MOSUNNY   81  55  41 S17G28    30.02F HX  80
QUAD CITIES    MOSUNNY   83  54  36 S14G26    30.03F HX  82
$$

IAZ062-063-075>077-085>089-095>099-062000-
   SOUTHEAST IOWA

CITY           SKY/WX    TMP DP  RH WIND       PRES   REMARKS
BURLINGTON     PTSUNNY   81  58  45 S16       30.02F HX  81
FAIRFIELD *    PTSUNNY   79  57  47 S21G33    29.98S HX  80
FORT MADISON * MOSUNNY   79  57  47 S20       30.02F HX  80
KEOKUK *       MOSUNNY   81  57  44 S17G25    30.00F HX  81
OSKALOOSA *    PTSUNNY   77  59  53 S23G35    29.97F
CENTERVILLE *  SUNNY     72  59  64 S16       30.01S
OTTUMWA        CLOUDY    78  59  51 S22G30    29.97S
WASHINGTON *   MOSUNNY   82 -29   1 S22G35    29.98F
$$

ABBREVIATIONS USED IN REMARKS
   TC - TEMPERATURES IN CELSIUS
  WCI - WIND CHILL INDEX
   HX - HEAT INDEX
  VSB - VISIBILITY
$$



USA.gov is the U.S. government's official web portal to all federal, state and local government web resources and services.